This is the latest recevied weather packets stored in our database for station/object DK7LH-6. If no packets are shown the sender has not sent any weather packets the latest 10 day(s).
| Time | Temp. | Humidity | Pressure | Rain* | Wind** | Luminosity | Snow |
|---|---|---|---|---|---|---|---|
| 1778277628 | 8.33° C | 88% | 1020.1 hPa | 0 mm | - | 0 W/m² | - |
| 1778276760 | 8.89° C | 87% | 1020 hPa | 0 mm | - | 0 W/m² | - |
| 1778275830 | 9.44° C | 86% | 1019.8 hPa | 0 mm | - | 0 W/m² | - |
| 1778274962 | 9.44° C | 84% | 1019.7 hPa | 0 mm | - | 0 W/m² | - |
| 1778274032 | 10° C | 81% | 1019.7 hPa | 0 mm | - | 0 W/m² | - |
| 1778273164 | 11.11° C | 78% | 1019.6 hPa | 0 mm | - | 0 W/m² | - |
| 1778272234 | 11.67° C | 76% | 1019.7 hPa | 0 mm | - | 0 W/m² | - |
| 1778271366 | 11.67° C | 75% | 1019.7 hPa | 0 mm | - | 0 W/m² | - |
| 1778270436 | 12.22° C | 73% | 1019.5 hPa | 0 mm | - | 0 W/m² | - |
| 1778269568 | 12.78° C | 72% | 1019.6 hPa | 0 mm | - | 0 W/m² | - |
| 1778268638 | 12.78° C | 70% | 1019.4 hPa | 0 mm | - | 0 W/m² | - |
| 1778267770 | 13.33° C | 68% | 1019.3 hPa | 0 mm | - | 0 W/m² | - |
| 1778266840 | 13.89° C | 65% | 1019.1 hPa | 0 mm | - | 4 W/m² | - |
| 1778265972 | 14.44° C | 57% | 1018.9 hPa | 0 mm | - | 12 W/m² | - |
| 1778265042 | 15° C | 50% | 1018.7 hPa | 0 mm | - | 20 W/m² | - |
| 1778264175 | 15.56° C | 48% | 1018.8 hPa | 0 mm | - | 32 W/m² | - |
| 1778263245 | 15.56° C | 47% | 1018.7 hPa | 0 mm | - | 45 W/m² | - |
| 1778262376 | 15.56° C | 48% | 1018.7 hPa | 0 mm | - | 73 W/m² | - |
| 1778261446 | 16.11° C | 46% | 1018.7 hPa | 0 mm | - | 102 W/m² | - |
| 1778260516 | 15.56° C | 47% | 1018.8 hPa | 0 mm | - | 104 W/m² | - |
| 1778259617 | 16.11° C | 48% | 1019 hPa | 0 mm | - | 73 W/m² | - |
| 1778258749 | 17.22° C | 45% | 1019.3 hPa | 0 mm | - | 111 W/m² | - |
| 1778257819 | 17.22° C | 44% | 1019.4 hPa | 0 mm | - | 258 W/m² | - |
| 1778256951 | 17.22° C | 44% | 1019.1 hPa | 0 mm | - | 281 W/m² | - |
| 1778256021 | 17.22° C | 42% | 1019.3 hPa | 0 mm | - | 253 W/m² | - |
* Rain latest hour (hover to see other rain measurements)
** Current wind speed in m/s (hover to see current wind gust speed)